SCP
0 0 0 0 0 0 0 0 0 0 0 0 0 0 0 0 0 0 0 0 0 0 0 0 0 0 0 0 0 0 0 0 0 0 0 0 0 0 0 0 0 0 0
0 0 0 0 0 0 0 0 0 0 0 0 0 0 0 0 0 0 0 0 0 0 0 0 0 0 0 0 0 0 0 0 0 0 0 0 0 0 0 0 0 0 0
0 0 0 0 0 0 0 0 0 0 0 0 0 0 0 0 0 0 0 0 0 0 0 0 0 0 0 0 0 0 0 0 0 0 0 0 0 0 0 0 0 0 0
0 0 0 0 0 0 0 0 0 0 0 0 0 0 0 0 0 0 0 0 0 0 0 0 0 0 0 0 0 0 0 0 0 0 0 0 0 0 0 0 0 0 0
0 0 0 0 0 0 0 0 0 0 0 0 0 0 0 0 0 0 0 0 0 0 0 0 0 0 0 0 0 0 0 0 0 0 0 0 0 0 0 0 0 0 0
0 0 0 0 0 0 0 0 0 0 0 0 0 0 0 0 0 0 0 0 0 0 0 0 0 0 0 0 0 0 0 0 0 0 0 0 0 0 0 0 0 0 0
0 0 0 0 0 0 0 0 0 0 0 0 0 0 0 0 0 0 0 0 0 0 0 0 0 0 0 0 0 0 0 0 0 0 0 0 0 0 0 0 0 0 0
0 0 0 0 0 0 0 0 0 0 0 0 0 0 0 0 0 0 0 0 0 0 0 0 0 0 0 0 0 0 0 0 0 0 0 0 0 0 0 0 0 0 0
0 0 0 1 1 0 0 0 0 0 0 0 0 0 0 0 0 0 0 0 0 0 0 0 0 0 1 1 0 0 0 0 0 0 0 0 0 0 0 0 0 0 0
1 1 1 1 1 1 1 1 1 1 1 0 0 0 0 0 0 0 0 0 0 0 0 0 0 0 1 1 0 0 0 0 0 0 0 0 0 0 0 0 0 0 0
1 1 1 1 1 1 1 1 1 1 1 1 0 0 0 0 0 0 0 0 0 0 0 0 0 0 0 0 0 0 0 0 0 0 0 0 0 0 0 0 0 0 0
1 1 1 1 1 1 1 1 1 1 1 1 1 0 0 0 0 0 0 0 0 0 0 0 0 0 0 0 0 0 0 0 0 0 0 0 0 0 0 0 0 0 0
1 1 1 1 1 1 1 1 1 1 1 1 1 1 0 0 0 0 0 0 0 0 0 0 0 0 0 0 0 0 0 0 0 0 0 0 0 0 0 0 0 0 0
1 1 1 1 1 1 1 1 1 1 1 1 1 1 0 0 0 0 0 0 0 0 0 0 0 0 0 0 0 0 0 0 0 0 0 0 0 0 0 0 0 0 0
1 1 1 1 1 1 1 1 1 1 1 1 1 1 1 0 0 1 0 0 0 0 0 0 0 0 0 0 0 0 0 0 0 0 0 0 0 0 0 0 0 0 0
1 1 1 1 1 1 1 1 1 1 1 1 1 1 1 1 1 1 1 1 0 0 0 0 0 0 0 0 0 0 0 0 0 0 0 0 0 0 0 0 0 0 0
1 1 1 1 1 1 1 1 1 1 1 1 1 1 1 1 1 1 1 1 1 0 0 0 0 0 0 0 0 0 0 0 0 0 0 0 0 0 0 0 0 0 0
1 1 1 1 1 1 1 1 1 1 1 1 1 1 1 1 1 1 1 1 1 0 0 0 0 0 0 0 0 0 0 0 0 0 0 0 0 0 0 0 0 0 0
1 1 1 1 1 1 1 1 1 1 1 1 1 1 1 1 1 1 1 1 1 0 0 0 0 0 0 0 0 0 0 0 0 0 0 0 0 0 0 0 0 0 0
1 1 1 1 1 1 1 1 1 1 1 1 1 1 1 1 1 1 1 1 0 0 0 0 0 0 0 0 0 0 0 1 0 0 0 0 0 0 0 0 0 0 0
1 1 1 1 1 1 1 1 1 1 1 1 1 1 1 1 1 0 0 0 0 0 0 0 0 0 1 1 1 1 1 1 0 0 0 0 0 0 0 0 0 0 0
1 1 1 1 1 1 0 0 0 1 1 1 1 1 1 0 0 0 0 0 0 0 0 0 0 0 1 1 1 1 1 1 1 0 0 0 0 0 0 0 0 0 0
1 1 1 1 1 0 0 0 0 0 1 1 0 0 0 0 0 0 0 0 0 0 0 0 0 0 1 1 1 1 1 1 1 1 0 0 0 0 0 0 0 0 0
1 1 1 1 1 0 0 0 0 0 0 0 0 0 0 0 0 0 0 0 0 0 0 0 0 0 0 1 1 1 1 1 1 1 0 0 0 0 0 0 0 0 0
1 1 1 1 1 0 0 0 0 0 0 0 0 0 0 0 0 0 0 0 0 0 0 0 0 0 0 0 1 1 1 1 1 1 1 0 0 0 0 0 0 0 0
1 1 1 1 1 0 0 0 0 0 0 0 0 0 0 0 0 0 0 0 0 0 0 0 0 0 0 0 0 1 1 1 1 1 1 1 0 0 0 0 0 0 0
Wind_Speed
1 1 0 1 1 1 1 1 1 2 2 2 3 3 3 2 1 2 4 9 10 9 9 9 8 8 8 8 8 8 8 9 9 9 9 9 9 9 10 10 10 9 9
1 1 0 1 1 1 1 1 2 1 2 2 3 3 3 3 2 2 4 6 10 9 10 9 9 9 9 9 9 8 8 8 8 8 9 9 9 9 10 10 10 10 10
1 1 1 1 1 1 1 1 1 1 2 2 3 4 3 3 3 2 3 4 5 8 10 10 9 9 9 9 9 9 8 8 8 8 9 9 9 9 9 10 10 11 11
1 1 1 1 1 1 1 1 1 1 2 2 3 4 3 2 4 4 3 3 4 5 8 11 10 10 10 10 10 9 8 8 8 8 9 9 10 9 9 9 9 10 11
1 1 1 0 2 1 1 2 0 1 2 3 3 3 3 3 3 3 3 3 3 3 4 8 11 9 9 9 9 9 8 8 8 8 8 9 9 9 9 9 9 10 11
1 1 1 1 2 1 1 1 1 2 3 3 4 3 3 3 2 2 3 3 3 4 4 5 6 7 10 9 8 8 8 8 8 8 8 8 8 8 8 9 9 9 9
2 1 1 1 2 1 1 2 2 3 3 2 2 2 3 3 2 2 2 2 2 3 3 4 4 3 5 10 9 8 8 8 7 7 7 7 7 7 8 9 9 9 9
2 2 1 2 1 1 1 2 2 2 2 1 1 2 2 2 2 3 2 3 3 2 2 4 4 4 2 3 6 9 8 7 6 6 6 6 6 7 8 9 9 9 9
2 1 1 2 1 1 1 2 1 2 2 2 1 1 1 2 2 2 2 1 1 2 1 1 3 3 3 2 3 7 8 6 6 6 6 6 6 6 7 8 9 9 9
3 3 2 2 1 1 1 2 0 2 2 2 2 1 1 1 1 2 2 1 1 1 2 2 2 2 3 2 3 5 7 7 6 5 6 6 7 7 7 8 8 9 9
3 2 1 1 1 1 1 2 1 1 1 2 2 2 2 2 2 2 2 3 2 2 2 2 1 2 2 3 3 5 7 8 7 6 6 6 7 7 8 8 8 9 9
2 2 2 2 2 1 1 2 2 2 1 2 2 2 2 2 2 2 3 3 2 2 2 1 1 1 2 2 3 4 7 7 7 7 6 6 6 7 7 8 9 8 9
2 2 2 2 2 2 2 2 2 2 2 2 2 2 2 3 2 2 3 3 3 2 2 2 1 1 1 1 2 5 6 6 7 7 6 6 6 6 6 7 8 8 8
1 1 1 2 2 2 2 1 2 2 2 2 3 2 2 3 3 2 2 2 3 3 2 2 1 1 1 1 2 5 3 5 6 7 6 6 6 6 6 6 7 7 8
1 0 1 1 2 2 2 2 2 2 2 2 2 2 2 3 3 3 2 2 2 3 3 2 1 1 1 1 3 2 2 5 6 7 7 7 7 7 7 7 7 7 7
2 1 1 2 2 2 2 2 2 2 2 2 2 2 3 3 3 3 3 2 2 2 3 2 2 2 2 1 1 2 2 5 7 8 8 8 8 8 8 8 7 7 7
1 1 1 1 2 2 2 3 3 3 3 3 3 3 3 3 3 3 3 3 2 2 3 3 2 2 1 1 1 2 3 3 4 8 9 8 8 9 8 8 8 8 8
1 1 1 2 2 2 2 2 3 3 3 3 3 3 4 3 3 3 2 3 3 2 3 4 3 2 2 2 2 3 3 3 3 6 9 9 9 9 9 8 8 8 8
1 1 1 1 2 2 2 2 2 3 3 3 3 3 3 3 3 2 3 3 3 3 2 3 4 2 2 2 2 3 4 3 4 4 8 9 9 9 9 9 9 9 8
1 1 1 1 2 2 2 2 2 3 3 3 3 3 3 2 3 3 3 3 3 3 3 3 3 2 2 2 1 2 3 2 3 4 3 5 7 9 9 9 9 9 9
1 1 1 2 2 2 2 2 3 3 3 3 3 3 2 2 3 3 4 3 3 3 3 3 3 3 2 2 2 3 3 3 3 3 1 3 3 4 5 8 9 10 9
1 1 2 1 2 2 3 4 3 4 3 3 3 3 3 2 3 4 6 6 5 4 4 4 3 3 4 3 3 4 3 3 3 2 2 4 3 3 4 5 7 9 10
1 1 1 1 1 2 3 3 4 4 4 3 3 3 4 3 2 3 4 6 6 7 7 5 5 5 5 4 3 4 4 4 4 3 2 4 3 4 4 3 7 9 9
1 1 1 1 0 1 2 3 5 5 4 4 3 3 3 3 4 4 5 5 5 5 5 5 4 5 5 4 4 5 5 4 4 3 2 4 3 3 4 2 5 8 9
2 2 2 1 1 0 0 1 3 4 3 4 3 3 3 2 3 4 4 5 5 5 6 6 7 7 8 8 5 3 3 3 4 4 2 2 3 3 3 2 3 6 7
2 2 2 2 1 1 1 1 2 3 3 3 3 2 1 1 3 4 4 5 6 6 6 6 6 7 6 6 7 5 3 3 4 4 2 2 3 2 3 2 1 2 4
Wind_Direction
157 127 179 175 207 172 177 215 233 248 250 247 250 251 272 295 237 145 151 177 178 183 188 195 201 206 210 213 214 215 219 220 220 220 219 222 223 222 222 220 217 217 219
118 117 93 285 280 170 178 226 236 246 260 255 257 259 249 246 239 190 170 183 191 192 195 199 202 206 212 217 220 220 222 223 223 224 223 224 227 226 226 224 223 222 220
148 169 199 222 275 254 203 239 256 241 249 262 267 260 243 223 230 220 186 178 184 200 203 204 207 209 215 220 222 224 226 226 227 228 226 225 226 225 227 228 228 225 223
170 210 228 203 251 254 223 231 249 281 289 278 269 263 251 219 220 221 213 193 185 193 202 208 210 213 218 222 224 225 227 225 226 230 228 226 224 224 228 229 232 231 229
210 212 243 219 255 257 277 280 356 260 265 260 261 252 259 251 221 226 216 207 195 187 176 195 205 212 218 223 224 225 225 226 228 230 229 228 227 226 227 228 230 232 230
222 254 217 231 263 243 277 294 285 267 253 256 277 282 244 242 218 227 234 208 190 196 185 184 189 207 213 217 221 225 228 230 233 234 232 230 229 226 224 226 227 230 231
208 235 269 231 240 223 252 271 266 273 272 265 284 295 267 236 221 213 213 217 207 200 196 180 177 188 196 208 216 221 227 229 233 237 236 235 234 229 227 227 228 232 233
212 218 224 260 251 224 237 275 281 287 289 303 302 305 307 297 287 232 203 207 214 203 206 193 176 187 200 178 198 209 217 222 232 238 235 235 235 234 233 234 233 234 235
202 245 226 259 276 253 228 263 273 292 294 294 302 312 315 311 318 272 252 224 207 195 206 216 189 181 189 189 177 191 202 210 224 232 234 237 239 242 242 242 237 237 238
208 208 225 238 261 270 262 278 168 284 285 290 299 269 251 280 288 305 307 287 247 234 228 231 215 188 181 178 170 168 189 202 212 226 233 237 238 239 241 241 241 238 238
211 208 181 222 251 259 264 293 302 296 294 297 298 298 292 281 252 261 287 303 298 270 232 222 205 185 188 183 178 185 190 193 201 216 229 236 241 242 244 245 248 245 242
206 190 187 218 239 249 263 272 277 279 274 293 294 296 299 298 298 280 273 277 277 276 266 246 213 209 188 169 202 184 186 191 199 213 226 235 244 248 249 247 248 251 248
209 193 208 210 233 238 240 252 264 269 273 277 282 291 298 292 295 294 293 291 289 283 267 246 210 199 198 162 169 173 185 192 202 211 224 235 243 247 250 246 244 248 251
252 195 220 237 238 249 263 245 265 259 261 273 285 293 295 293 295 280 274 285 296 292 278 275 267 197 151 168 184 180 185 198 207 214 223 233 240 242 244 242 243 246 250
273 158 253 256 258 262 268 264 257 269 271 274 279 283 276 283 285 290 282 266 273 290 289 292 298 305 194 168 168 194 196 207 210 213 218 224 230 234 236 238 242 245 249
334 341 305 304 289 285 276 270 265 267 258 258 249 260 268 280 293 289 288 293 280 271 281 282 291 298 326 319 199 232 244 223 216 213 219 223 226 229 231 234 240 243 245
275 283 274 285 294 290 281 275 270 270 265 266 268 258 259 268 283 293 295 290 283 274 277 287 282 283 301 306 310 274 253 232 224 217 219 220 222 226 229 232 235 237 240
265 270 270 266 272 289 294 288 287 284 273 270 275 273 272 273 272 277 291 294 292 282 276 284 287 277 257 242 243 263 277 267 255 225 220 219 223 226 230 232 233 232 235
277 300 308 307 308 299 294 297 294 289 286 282 278 271 266 274 278 280 281 289 288 291 278 275 278 277 274 269 259 273 273 271 274 244 226 225 228 230 232 229 229 228 229
265 274 266 279 279 296 312 318 312 290 293 293 292 289 289 285 282 287 280 281 285 289 287 285 285 286 279 276 261 267 278 270 275 269 244 236 230 231 233 228 230 228 225
265 270 267 275 281 284 328 347 316 302 305 297 300 299 284 280 279 275 284 285 285 282 288 284 283 287 282 286 272 262 273 282 269 264 266 265 238 231 231 233 232 229 226
294 288 285 287 305 325 13 15 346 315 311 306 305 305 283 264 270 266 273 277 270 264 274 279 281 289 283 275 275 278 282 294 292 277 288 282 261 249 236 226 218 220 223
289 286 301 310 4 8 8 2 339 306 298 295 295 304 305 305 296 284 275 265 264 258 250 259 275 278 282 286 279 279 278 274 273 282 291 284 280 274 268 244 210 215 220
282 269 278 283 283 335 13 350 327 302 298 294 287 280 291 309 317 313 296 286 276 271 259 251 260 274 278 278 271 267 268 274 273 269 254 277 287 286 293 259 212 215 220
255 251 252 244 251 139 314 325 323 303 295 297 293 303 311 330 337 324 298 292 288 283 280 276 269 269 269 267 266 280 280 280 286 278 246 260 281 294 287 265 235 224 228
254 264 261 250 215 208 220 334 322 299 301 304 298 289 320 342 332 327 303 292 287 288 294 289 276 269 262 256 246 236 248 264 280 281 250 241 273 296 296 279 264 229 244